M I D A S
Marine Information and Data Acquisition System
Tripno 1871 of the Zeeleeuw from 2010-04-29 06:50:12 to 2010-04-29 15:24:54
Back to CruiseResearch ActivitiesStationsMapUnderway DataData graphs

EquipmentUnitsComments
TimeDGPSUTC
LatitudeDGPSDM.mWGS84
LongitudeDGPSDM.mWGS84
SpeedMeteo Stationm/sRelative wind speed
DirectionMeteo StationdegRelative wind direction
TemperatureMeteo Stationdeg CelciusAir temperature
PressureMeteo StationPaAtmospheric pressure
HumidityMeteo Station%Relative humidity
Missing or incorrect values are displayed as -999
Metereological data collected by the RV Zeeleeuw from 2010-04-29 06:37:43 to 2010-04-29 15:27:23
Time Latitude Longitude Speed Direction Temperature Pressure Humidity
2010-04-29 06:38 51°13.682 2°55.891 2.1 32 15.1 101300 38
2010-04-29 06:39 51°13.696 2°55.799 3.1 40 15.1 101300 36
2010-04-29 06:40 51°13.703 2°55.739 2.1 42 15.1 101300 38
2010-04-29 06:41 51°13.703 2°55.727 1.6 39 15.1 101300 36
2010-04-29 06:42 51°13.735 2°55.705 0.1 30 15.1 101300 37
2010-04-29 06:43 51°13.856 2°55.614 2.2 33 15.1 101300 38
2010-04-29 06:44 51°14.011 2°55.508 2.9 319 15.2 101290 36
2010-04-29 06:45 51°14.167 2°55.388 2 33 15.3 101290 36
2010-04-29 06:46 51°14.328 2°55.251 2.8 32 15.3 101290 36
2010-04-29 06:47 51°14.497 2°55.089 3.7 317 15.4 101260 36
2010-04-29 06:48 51°14.679 2°54.893 7.4 32 15.6 101280 36
2010-04-29 06:49 51°14.865 2°54.678 6.4 31 15.5 101290 36
2010-04-29 06:50 51°15.049 2°54.477 5.5 237 15.2 101290 37
2010-04-29 06:51 51°15.217 2°54.245 6.8 234 15 101280 38
2010-04-29 06:52 51°15.398 2°54.022 6.2 234 14.8 101290 38
2010-04-29 06:53 51°15.58 2°53.794 5.7 36 14.6 101290 38
2010-04-29 06:54 51°15.766 2°53.568 7.1 234 14.4 101290 38
2010-04-29 06:55 51°15.955 2°53.347 6.1 34 14.2 101290 40
2010-04-29 06:56 51°16.161 2°53.198 3.7 34 14 101290 39
2010-04-29 06:57 51°16.37 2°53.061 3.5 34 13.8 101290 39
2010-04-29 06:58 51°16.577 2°52.922 4.1 34 13.8 101290 39
2010-04-29 06:59 51°16.784 2°52.797 4 234 13.6 101290 40
2010-04-29 07:00 51°16.978 2°52.663 3.5 32 13.5 101290 40
2010-04-29 07:01 51°17.177 2°52.564 2.6 232 13.4 101280 41
2010-04-29 07:02 51°17.385 2°52.467 3.3 231 13.4 101280 40
2010-04-29 07:03 51°17.592 2°52.402 3 38 13.4 101280 39
2010-04-29 07:04 51°17.805 2°52.338 2.4 34 13.3 101280 39
2010-04-29 07:05 51°18.012 2°52.272 2.5 32 13.3 101270 40
2010-04-29 07:06 51°18.229 2°52.199 3.3 32 13.2 101270 40
2010-04-29 07:07 51°18.44 2°52.13 3.2 37 13.2 101280 39
2010-04-29 07:08 51°18.658 2°52.055 3.2 35 13.1 101270 39
2010-04-29 07:09 51°18.87 2°51.977 3 234 13.1 101280 41
2010-04-29 07:10 51°19.088 2°51.896 3.5 31 13 101270 41
2010-04-29 07:11 51°19.302 2°51.811 3.5 35 13 101270 40
2010-04-29 07:12 51°19.511 2°51.727 3.5 35 13 101270 39
2010-04-29 07:13 51°19.726 2°51.639 2.9 32 13 101270 42
2010-04-29 07:14 51°19.939 2°51.588 3.2 37 12.9 101260 40
2010-04-29 07:15 51°20.152 2°51.543 2.6 38 13 101260 39
2010-04-29 07:16 51°20.364 2°51.496 2.6 40 13 101260 40
2010-04-29 07:17 51°20.585 2°51.448 2.5 36 13 101250 40
2010-04-29 07:18 51°20.804 2°51.397 2.4 30 13 101250 41
2010-04-29 07:19 51°21.023 2°51.343 2.4 32 13 101250 42
2010-04-29 07:20 51°21.243 2°51.29 2.9 38 13.1 101250 40
2010-04-29 07:21 51°21.461 2°51.232 2.8 31 13.1 101250 42
2010-04-29 07:22 51°21.666 2°51.089 6.6 36 13.1 101240 39
2010-04-29 07:23 51°21.753 2°50.732 6.9 38 13.1 101230 42
2010-04-29 07:24 51°21.918 2°50.528 2.4 33 13 101240 42
2010-04-29 07:25 51°22.127 2°50.47 1 335 13 101240 42
2010-04-29 07:26 51°22.239 2°50.721 3.8 352 13 101240 39
2010-04-29 07:27 51°22.361 2°50.977 1.1 341 12.9 101240 40
2010-04-29 07:28 51°22.562 2°50.986 2.5 31 12.8 101240 43
2010-04-29 07:29 51°22.781 2°50.932 2.1 237 12.8 101250 40
2010-04-29 07:30 51°22.982 2°50.968 0.7 315 12.8 101250 40
2010-04-29 07:31 51°23.188 2°51.019 0.2 316 12.9 101240 41
2010-04-29 07:32 51°23.385 2°51.071 0.9 319 13 101240 41
2010-04-29 07:33 51°23.592 2°51.117 1.1 321 13 101240 41
2010-04-29 07:34 51°23.793 2°51.156 1.2 315 13 101230 41
2010-04-29 07:35 51°24.002 2°51.199 0.1 324 13.1 101240 41
2010-04-29 07:36 51°24.205 2°51.235 0.7 34 13.1 101230 41
2010-04-29 07:37 51°24.415 2°51.27 0.4 34 13.1 101240 41
2010-04-29 07:38 51°24.621 2°51.302 0.9 31 13.2 101230 40
2010-04-29 07:39 51°24.825 2°51.336 0.2 31 13.2 101240 43
2010-04-29 07:40 51°25.029 2°51.37 0.8 315 13.2 101230 42
2010-04-29 07:41 51°25.233 2°51.401 0.8 31 13.2 101230 40
2010-04-29 07:42 51°25.437 2°51.437 0.9 318 13.2 101230 41
2010-04-29 07:43 51°25.64 2°51.47 0.5 316 13.2 101230 41
2010-04-29 07:44 51°25.851 2°51.505 0.8 317 13.3 101230 40
2010-04-29 07:45 51°26.056 2°51.547 0.8 231 13.2 101230 41
2010-04-29 07:46 51°26.268 2°51.591 1 32 13.2 101230 41
2010-04-29 07:47 51°26.482 2°51.631 0.8 35 13.3 101220 41
2010-04-29 07:48 51°26.688 2°51.666 0.1 321 13.3 101220 41
2010-04-29 07:49 51°26.902 2°51.703 0.1 317 13.3 101220 41
2010-04-29 07:50 51°27.104 2°51.741 -999 322 13.3 101220 41
2010-04-29 07:51 51°27.309 2°51.783 0.1 328 13.4 101210 41
2010-04-29 07:52 51°27.495 2°51.882 1.1 344 13.4 101220 41
2010-04-29 07:53 51°27.681 2°52.001 1.2 338 13.3 101220 40
2010-04-29 07:54 51°27.863 2°52.115 4.5 324 13.2 101220 41
2010-04-29 07:55 51°28.053 2°52.233 1.7 329 13.1 101220 40
2010-04-29 07:56 51°28.241 2°52.349 0.9 340 13 101220 41
2010-04-29 07:57 51°28.427 2°52.461 0.3 345 13 101220 40
2010-04-29 07:58 51°28.622 2°52.578 2.8 331 13 101220 41
2010-04-29 07:59 51°28.81 2°52.692 6.4 327 12.9 101210 42
2010-04-29 08:00 51°29.006 2°52.804 3 333 12.8 101220 41
2010-04-29 08:01 51°29.198 2°52.917 1.7 343 12.7 101220 41
2010-04-29 08:02 51°29.39 2°53.03 2 332 12.8 101220 41
2010-04-29 08:03 51°29.579 2°53.142 2 332 12.9 101210 42
2010-04-29 08:04 51°29.774 2°53.255 1.7 336 12.9 101210 42
2010-04-29 08:05 51°29.961 2°53.381 2.5 332 12.9 101210 41
2010-04-29 08:06 51°30.145 2°53.505 4.7 328 12.9 101210 41
2010-04-29 08:07 51°30.336 2°53.63 3.9 336 12.7 101210 43
2010-04-29 08:08 51°30.523 2°53.755 3 343 12.7 101210 42
2010-04-29 08:09 51°30.71 2°53.892 3.2 339 12.6 101210 41
2010-04-29 08:10 51°30.886 2°54.028 4.3 334 12.7 101210 41
2010-04-29 08:11 51°31.065 2°54.166 3.6 339 12.6 101200 41
2010-04-29 08:12 51°31.237 2°54.306 2.9 347 12.5 101200 43
2010-04-29 08:13 51°31.408 2°54.47 2.8 347 12.4 101200 41
2010-04-29 08:14 51°31.577 2°54.63 3.6 338 12.3 101200 43
2010-04-29 08:15 51°31.742 2°54.789 3.8 336 12.3 101200 42
2010-04-29 08:16 51°31.902 2°54.979 3.7 341 12.3 101200 41
2010-04-29 08:17 51°32.056 2°55.167 4 344 12.4 101190 42
2010-04-29 08:18 51°32.216 2°55.362 4.7 339 12.5 101190 41
2010-04-29 08:19 51°32.364 2°55.494 1.2 335 12.5 101200 43
2010-04-29 08:20 51°32.439 2°55.446 -999 257 12.6 101200 42
2010-04-29 08:21 51°32.463 2°55.367 -999 264 12.8 101200 42
2010-04-29 08:22 51°32.466 2°55.287 1.5 260 12.9 101200 42
2010-04-29 08:23 51°32.457 2°55.213 1.9 259 13 101200 43
2010-04-29 08:24 51°32.439 2°55.141 2 258 13 101200 40
2010-04-29 08:25 51°32.42 2°55.067 2.2 259 13.1 101190 40
2010-04-29 08:26 51°32.413 2°54.99 0.7 42 13.1 101190 40
2010-04-29 08:27 51°32.457 2°55 2.7 358 13.1 101190 41
2010-04-29 08:28 51°32.429 2°55.199 5.9 345 12.8 101180 42
2010-04-29 08:29 51°32.368 2°55.508 6.8 342 12.6 101180 42
2010-04-29 08:30 51°32.301 2°55.84 7.3 343 12.6 101180 42
2010-04-29 08:31 51°32.255 2°56.105 5.6 350 12.5 101180 42
2010-04-29 08:32 51°32.224 2°56.297 5.1 354 12.4 101180 42
2010-04-29 08:33 51°32.204 2°56.469 4.9 357 12.3 101180 43
2010-04-29 08:34 51°32.19 2°56.64 4.5 360 12.3 101180 43
2010-04-29 08:35 51°32.171 2°56.724 3.5 356 12.3 101180 42
2010-04-29 08:36 51°32.147 2°56.709 3.6 346 12.3 101180 43
2010-04-29 08:37 51°32.125 2°56.694 3.2 341 12.4 101180 41
2010-04-29 08:38 51°32.099 2°56.68 3.2 342 12.5 101180 41
2010-04-29 08:39 51°32.064 2°56.676 3.6 348 12.7 101180 40
2010-04-29 08:40 51°32.023 2°56.695 4 360 12.7 101180 42
2010-04-29 08:41 51°31.989 2°56.722 3.7 10 12.6 101180 42
2010-04-29 08:42 51°31.963 2°56.74 3.6 11 12.5 101180 40
2010-04-29 08:43 51°31.94 2°56.753 3.4 13 12.4 101180 40
2010-04-29 08:44 51°31.917 2°56.76 3.4 13 12.4 101180 43
2010-04-29 08:45 51°31.896 2°56.762 3.1 15 12.4 101170 44
2010-04-29 08:46 51°31.873 2°56.762 3.3 14 12.5 101180 43
2010-04-29 08:47 51°31.851 2°56.76 3.5 11 12.5 101180 43
2010-04-29 08:48 51°31.826 2°56.755 3.6 9 12.5 101180 43
2010-04-29 08:49 51°31.801 2°56.748 2.9 7 12.5 101180 43
2010-04-29 08:50 51°31.776 2°56.741 3.2 8 12.4 101170 43
2010-04-29 08:51 51°31.752 2°56.731 2.9 5 12.4 101180 43
2010-04-29 08:52 51°31.721 2°56.733 4 348 12.4 101170 44
2010-04-29 08:53 51°31.64 2°56.719 5 319 12.5 101180 43
2010-04-29 08:54 51°31.602 2°56.598 3 260 12.6 101180 46
2010-04-29 08:55 51°31.646 2°56.522 0.2 34 12.7 101180 43
2010-04-29 08:56 51°31.717 2°56.441 1.9 256 12.8 101180 44
2010-04-29 08:57 51°31.803 2°56.301 1.7 247 12.9 101180 43
2010-04-29 08:58 51°31.908 2°56.164 2 239 13 101180 45
2010-04-29 08:59 51°32.011 2°56.025 1.8 31 13 101180 43
2010-04-29 09:00 51°32.128 2°55.878 2.2 31 13 101180 41
2010-04-29 09:01 51°32.263 2°55.713 2.5 322 13 101180 41
2010-04-29 09:02 51°32.36 2°55.676 0.1 7 12.9 101180 41
2010-04-29 09:03 51°32.38 2°55.754 1.1 4 12.7 101180 40
2010-04-29 09:04 51°32.448 2°55.837 2.7 348 12.5 101180 41
2010-04-29 09:05 51°32.488 2°56.022 3.1 351 12.4 101180 41
2010-04-29 09:06 51°32.468 2°56.115 2.2 357 12.3 101180 44
2010-04-29 09:07 51°32.44 2°56.168 1.7 2 12.2 101180 43
2010-04-29 09:08 51°32.416 2°56.196 1.7 8 12.2 101180 45
2010-04-29 09:09 51°32.392 2°56.211 1.5 4 12.2 101170 43
2010-04-29 09:10 51°32.367 2°56.217 1.9 8 12.2 101180 45
2010-04-29 09:11 51°32.341 2°56.218 1.8 5 12.2 101170 42
2010-04-29 09:12 51°32.315 2°56.215 1.6 9 12.2 101170 43
2010-04-29 09:13 51°32.286 2°56.221 2 359 12.3 101170 43
2010-04-29 09:14 51°32.242 2°56.27 3 346 12.3 101170 43
2010-04-29 09:15 51°32.18 2°56.312 3.6 343 12.2 101170 46
2010-04-29 09:16 51°32.115 2°56.316 2.7 325 12.3 101170 43
2010-04-29 09:17 51°32.047 2°56.277 2.6 319 12.4 101170 47
2010-04-29 09:18 51°32.022 2°56.139 0.9 31 12.5 101170 44
2010-04-29 09:19 51°32.094 2°56.037 1.6 38 12.6 101170 44
2010-04-29 09:20 51°32.179 2°55.969 -999 353 12.7 101170 45
2010-04-29 09:21 51°32.268 2°55.98 -999 338 12.8 101170 44
2010-04-29 09:22 51°32.388 2°55.975 -999 329 12.7 101170 44
2010-04-29 09:23 51°32.443 2°55.987 -999 26 12.9 101180 45
2010-04-29 09:24 51°32.451 2°56 -999 34 12.9 101180 45
2010-04-29 09:25 51°32.45 2°56.013 -999 37 12.9 101180 45
2010-04-29 09:26 51°32.444 2°56.019 -999 31 13 101180 45
2010-04-29 09:27 51°32.435 2°56.021 -999 28 13 101180 44
2010-04-29 09:28 51°32.425 2°56.019 -999 240 13.1 101170 45
2010-04-29 09:29 51°32.41 2°56.013 -999 248 13.3 101170 45
2010-04-29 09:30 51°32.394 2°56.005 -999 255 13.4 101170 45
2010-04-29 09:31 51°32.376 2°55.997 -999 255 13.6 101170 45
2010-04-29 09:32 51°32.354 2°55.986 -999 266 13.7 101170 45
2010-04-29 09:33 51°32.349 2°55.984 -999 317 13.8 101170 45
2010-04-29 09:34 51°32.361 2°55.944 -999 322 13.8 101170 44
2010-04-29 09:35 51°32.354 2°55.857 -999 316 13.8 101170 43
2010-04-29 09:36 51°32.311 2°55.77 1.8 330 13.7 101160 45
2010-04-29 09:37 51°32.242 2°55.734 1.8 339 13.6 101170 45
2010-04-29 09:38 51°32.179 2°55.765 1.5 347 13.4 101170 44
2010-04-29 09:39 51°32.179 2°55.839 0.4 345 13.3 101170 43
2010-04-29 09:40 51°32.275 2°55.773 2.7 323 13.2 101160 45
2010-04-29 09:41 51°32.438 2°55.666 3.7 326 13.2 101160 44
2010-04-29 09:42 51°32.605 2°55.562 4.1 325 13.2 101160 44
2010-04-29 09:43 51°32.713 2°55.437 1.9 316 13.3 101160 42
2010-04-29 09:44 51°32.747 2°55.344 0.1 250 13.4 101170 43
2010-04-29 09:45 51°32.749 2°55.312 -999 40 13.5 101160 44
2010-04-29 09:46 51°32.745 2°55.301 0.4 34 13.7 101170 44
2010-04-29 09:47 51°32.734 2°55.293 0.1 34 13.8 101170 44
2010-04-29 09:48 51°32.72 2°55.282 1.2 44 13.8 101170 43
2010-04-29 09:49 51°32.704 2°55.27 1.2 42 13.8 101160 43
2010-04-29 09:50 51°32.696 2°55.263 0.1 39 13.7 101160 43
2010-04-29 09:51 51°32.74 2°55.216 1.4 34 13.7 101160 42
2010-04-29 09:52 51°32.863 2°55.048 4.1 318 13.8 101150 42
2010-04-29 09:53 51°32.997 2°54.844 3.3 318 13.8 101150 42
2010-04-29 09:54 51°33.154 2°54.705 2.7 317 13.8 101160 42
2010-04-29 09:55 51°33.251 2°54.684 -999 36 13.7 101160 43
2010-04-29 09:56 51°33.285 2°54.683 1 33 13.9 101160 44
2010-04-29 09:57 51°33.287 2°54.666 -999 41 14 101150 43
2010-04-29 09:58 51°33.277 2°54.65 1.3 45 13.9 101160 42
2010-04-29 09:59 51°33.266 2°54.639 1.3 33 13.7 101160 42
2010-04-29 10:00 51°33.266 2°54.642 -999 35 13.6 101160 42
2010-04-29 10:01 51°33.267 2°54.645 -999 36 13.5 101160 43
2010-04-29 10:02 51°33.266 2°54.644 0.1 39 13.6 101170 44
2010-04-29 10:03 51°33.267 2°54.639 0.1 270 13.7 101170 43
2010-04-29 10:04 51°33.27 2°54.636 -999 264 13.6 101170 43
2010-04-29 10:05 51°33.275 2°54.632 0.1 32 13.6 101170 43
2010-04-29 10:06 51°33.278 2°54.63 -999 35 13.5 101160 43
2010-04-29 10:07 51°33.28 2°54.634 -999 36 13.6 101160 42
2010-04-29 10:08 51°33.279 2°54.634 -999 39 13.7 101160 44
2010-04-29 10:09 51°33.276 2°54.633 -999 39 13.9 101150 44
2010-04-29 10:10 51°33.273 2°54.633 -999 36 14.1 101160 43
2010-04-29 10:11 51°33.272 2°54.635 -999 36 14.2 101150 43
2010-04-29 10:12 51°33.273 2°54.637 1.2 34 14.4 101150 44
2010-04-29 10:13 51°33.273 2°54.636 0.7 32 14.3 101150 42
2010-04-29 10:14 51°33.274 2°54.633 0.2 39 14.2 101150 42
2010-04-29 10:15 51°33.275 2°54.633 1 39 14 101150 41
2010-04-29 10:16 51°33.276 2°54.634 0.2 32 13.9 101140 42
2010-04-29 10:17 51°33.276 2°54.634 0.1 39 13.7 101140 42
2010-04-29 10:18 51°33.276 2°54.633 0.4 32 13.7 101140 43
2010-04-29 10:19 51°33.276 2°54.633 1.2 41 13.6 101140 41
2010-04-29 10:20 51°33.276 2°54.633 0.3 39 13.5 101130 44
2010-04-29 10:21 51°33.276 2°54.634 0.1 35 13.5 101130 44
2010-04-29 10:22 51°33.276 2°54.634 1.2 41 13.7 101130 44
2010-04-29 10:23 51°33.275 2°54.635 1.4 33 13.7 101130 41
2010-04-29 10:24 51°33.274 2°54.635 1.3 41 13.7 101130 45
2010-04-29 10:25 51°33.273 2°54.636 1 264 13.7 101130 43
2010-04-29 10:26 51°33.274 2°54.636 1.5 262 13.6 101130 43
2010-04-29 10:27 51°33.274 2°54.637 2.7 256 13.5 101130 43
2010-04-29 10:28 51°33.273 2°54.638 2.5 254 13.4 101130 42
2010-04-29 10:29 51°33.273 2°54.637 0.5 262 13.4 101130 43
2010-04-29 10:30 51°33.273 2°54.638 1 269 13.4 101120 43
2010-04-29 10:31 51°33.274 2°54.638 1.3 270 13.4 101120 44
2010-04-29 10:32 51°33.274 2°54.639 0.2 264 13.4 101120 43
2010-04-29 10:33 51°33.274 2°54.639 1.6 261 13.4 101130 43
2010-04-29 10:34 51°33.273 2°54.639 1.4 262 13.4 101130 43
2010-04-29 10:35 51°33.272 2°54.639 0.1 263 13.3 101130 43
2010-04-29 10:36 51°33.273 2°54.639 0.7 266 13.3 101130 44
2010-04-29 10:37 51°33.273 2°54.64 0.6 265 13.3 101130 43
2010-04-29 10:38 51°33.273 2°54.641 0.8 263 13.3 101130 43
2010-04-29 10:39 51°33.273 2°54.641 1.3 266 13.3 101130 42
2010-04-29 10:40 51°33.273 2°54.64 1 263 13.4 101130 42
2010-04-29 10:41 51°33.273 2°54.64 1.5 262 13.4 101140 43
2010-04-29 10:42 51°33.273 2°54.641 1.5 262 13.3 101140 44
2010-04-29 10:43 51°33.272 2°54.642 1.6 264 13.2 101150 43
2010-04-29 10:44 51°33.272 2°54.642 1.6 266 13.2 101150 42
2010-04-29 10:45 51°33.271 2°54.643 1.7 266 13.1 101150 41
2010-04-29 10:46 51°33.271 2°54.643 2.2 261 13.2 101140 43
2010-04-29 10:47 51°33.271 2°54.643 2.4 260 13.2 101140 40
2010-04-29 10:48 51°33.272 2°54.643 2.8 257 13.2 101140 44
2010-04-29 10:49 51°33.272 2°54.644 2.7 256 13.3 101130 42
2010-04-29 10:50 51°33.272 2°54.645 3.2 254 13.3 101130 42
2010-04-29 10:51 51°33.271 2°54.646 2.6 252 13.4 101130 44
2010-04-29 10:52 51°33.27 2°54.646 3.1 248 13.4 101130 42
2010-04-29 10:53 51°33.269 2°54.648 2.2 252 13.5 101120 41
2010-04-29 10:54 51°33.27 2°54.648 2.5 250 13.6 101120 41
2010-04-29 10:55 51°33.27 2°54.648 2.7 249 13.8 101120 41
2010-04-29 10:56 51°33.27 2°54.649 2.5 247 13.8 101120 44
2010-04-29 10:57 51°33.271 2°54.649 2.4 248 13.9 101120 42
2010-04-29 10:58 51°33.271 2°54.648 2.1 247 14 101120 44
2010-04-29 10:59 51°33.271 2°54.648 2.2 247 14 101110 42
2010-04-29 11:00 51°33.27 2°54.648 2.2 248 14.1 101110 42
2010-04-29 11:01 51°33.271 2°54.648 2.1 250 14.1 101110 44
2010-04-29 11:02 51°33.271 2°54.65 2.2 249 14.1 101100 41
2010-04-29 11:03 51°33.271 2°54.652 2.3 250 14.2 101100 42
2010-04-29 11:04 51°33.271 2°54.654 2.4 253 14.2 101090 40
2010-04-29 11:05 51°33.271 2°54.655 2.1 253 14.2 101090 41
2010-04-29 11:06 51°33.27 2°54.655 2 247 14.2 101090 40
2010-04-29 11:07 51°33.27 2°54.656 2.4 245 14.2 101090 42
2010-04-29 11:08 51°33.27 2°54.655 2.7 246 14.2 101090 42
2010-04-29 11:09 51°33.27 2°54.656 2.2 246 14.2 101090 42
2010-04-29 11:10 51°33.271 2°54.659 2.4 246 14.2 101090 40
2010-04-29 11:11 51°33.27 2°54.66 2.4 247 14.2 101090 38
2010-04-29 11:12 51°33.27 2°54.663 2.5 244 14.2 101090 40
2010-04-29 11:13 51°33.27 2°54.664 2.7 242 14.2 101080 42
2010-04-29 11:14 51°33.27 2°54.666 2.5 241 14.2 101090 40
2010-04-29 11:15 51°33.27 2°54.668 2.7 239 14.2 101090 40
2010-04-29 11:16 51°33.27 2°54.669 2.5 34 14.1 101090 40
2010-04-29 11:17 51°33.271 2°54.67 2.5 237 14.1 101080 39
2010-04-29 11:18 51°33.271 2°54.671 2.9 236 14 101080 40
2010-04-29 11:19 51°33.272 2°54.673 2.4 236 14 101080 38
2010-04-29 11:20 51°33.273 2°54.674 2.7 237 13.9 101080 39
2010-04-29 11:21 51°33.274 2°54.675 2.6 237 13.8 101080 39
2010-04-29 11:22 51°33.275 2°54.677 3 33 13.8 101080 41
2010-04-29 11:23 51°33.275 2°54.679 3 34 13.7 101070 39
2010-04-29 11:24 51°33.275 2°54.682 3.2 35 13.6 101080 39
2010-04-29 11:25 51°33.275 2°54.684 2.9 316 13.6 101080 41
2010-04-29 11:26 51°33.275 2°54.686 2.5 320 13.5 101070 42
2010-04-29 11:27 51°33.274 2°54.687 2.6 319 13.4 101070 38
2010-04-29 11:28 51°33.274 2°54.688 2.6 321 13.3 101070 40
2010-04-29 11:29 51°33.275 2°54.688 2.8 320 13.2 101070 40
2010-04-29 11:30 51°33.275 2°54.688 3.2 324 13.2 101070 40
2010-04-29 11:31 51°33.276 2°54.689 3 323 13.2 101070 41
2010-04-29 11:32 51°33.277 2°54.691 3 326 13.3 101070 42
2010-04-29 11:33 51°33.277 2°54.692 3.1 328 13.3 101060 40
2010-04-29 11:34 51°33.278 2°54.694 3.3 326 13.2 101070 40
2010-04-29 11:35 51°33.278 2°54.696 3.1 330 13.2 101060 39
2010-04-29 11:36 51°33.279 2°54.697 2.7 331 13.2 101070 41
2010-04-29 11:37 51°33.279 2°54.698 3.2 333 13.2 101060 42
2010-04-29 11:38 51°33.28 2°54.698 3.2 334 13.1 101060 41
2010-04-29 11:39 51°33.281 2°54.699 2.8 334 13.1 101060 41
2010-04-29 11:40 51°33.281 2°54.699 2.8 332 13 101060 41
2010-04-29 11:41 51°33.281 2°54.7 3 336 13 101060 43
2010-04-29 11:42 51°33.282 2°54.7 3.2 336 12.9 101050 41
2010-04-29 11:43 51°33.282 2°54.7 3.4 335 12.9 101050 42
2010-04-29 11:44 51°33.282 2°54.701 3 340 12.8 101040 41
2010-04-29 11:45 51°33.282 2°54.701 3.7 337 12.8 101040 41
2010-04-29 11:46 51°33.282 2°54.702 3.6 338 12.8 101040 43
2010-04-29 11:47 51°33.283 2°54.702 3.2 336 12.8 101040 41
2010-04-29 11:48 51°33.287 2°54.699 3.7 333 12.7 101040 42
2010-04-29 11:49 51°33.291 2°54.702 3.1 331 12.7 101030 41
2010-04-29 11:50 51°33.294 2°54.707 3.1 327 12.7 101040 41
2010-04-29 11:51 51°33.299 2°54.715 3 323 12.7 101030 42
2010-04-29 11:52 51°33.306 2°54.721 3.5 325 12.7 101040 41
2010-04-29 11:53 51°33.319 2°54.71 3.8 324 12.7 101040 41
2010-04-29 11:54 51°33.331 2°54.7 3.7 325 12.7 101040 43
2010-04-29 11:55 51°33.34 2°54.698 3.5 327 12.7 101030 41
2010-04-29 11:56 51°33.351 2°54.697 3.6 323 12.7 101030 41
2010-04-29 11:57 51°33.391 2°54.685 3.8 241 12.6 101030 41
2010-04-29 11:58 51°33.448 2°54.744 1.2 263 12.7 101030 41
2010-04-29 11:59 51°33.468 2°54.862 0.1 36 12.7 101030 40
2010-04-29 12:00 51°33.443 2°54.951 2.3 22 12.6 101030 40
2010-04-29 12:01 51°33.398 2°54.978 3.1 3 12.5 101020 43
2010-04-29 12:02 51°33.358 2°54.963 3.7 356 12.4 101020 42
2010-04-29 12:03 51°33.328 2°54.944 3.7 355 12.2 101020 41
2010-04-29 12:04 51°33.307 2°54.931 3.9 353 12 101020 44
2010-04-29 12:05 51°33.296 2°54.925 3.2 352 12 101020 45
2010-04-29 12:06 51°33.288 2°54.926 3.5 352 11.9 101010 42
2010-04-29 12:07 51°33.283 2°54.935 3.3 358 11.9 101010 44
2010-04-29 12:08 51°33.279 2°54.948 3.2 1 11.8 101010 42
2010-04-29 12:09 51°33.276 2°54.967 2.6 2 11.8 101010 43
2010-04-29 12:10 51°33.275 2°54.989 2.5 2 11.8 101000 45
2010-04-29 12:11 51°33.274 2°55.011 2.4 359 11.8 101010 45
2010-04-29 12:12 51°33.271 2°55.02 2.5 344 11.9 101000 45
2010-04-29 12:13 51°33.269 2°55.008 2.6 342 11.9 101000 45
2010-04-29 12:14 51°33.259 2°54.982 2.7 344 12 101000 45
2010-04-29 12:15 51°33.244 2°54.947 1.5 340 12.1 100990 41
2010-04-29 12:16 51°33.229 2°54.905 2.7 342 12.2 100990 42
2010-04-29 12:17 51°33.216 2°54.859 2.7 338 12.3 100990 42
2010-04-29 12:18 51°33.221 2°54.81 2.4 325 12.5 101000 42
2010-04-29 12:19 51°33.255 2°54.784 2.6 33 12.6 100990 44
2010-04-29 12:20 51°33.303 2°54.797 2.2 251 12.7 100990 41
2010-04-29 12:21 51°33.348 2°54.852 -999 265 12.8 100990 42
2010-04-29 12:22 51°33.387 2°54.933 -999 268 12.8 100990 43
2010-04-29 12:23 51°33.427 2°55.001 1.5 255 12.9 100990 42
2010-04-29 12:24 51°33.473 2°55.049 1.9 246 12.9 101000 44
2010-04-29 12:25 51°33.519 2°55.08 1.9 240 13 100990 42
2010-04-29 12:26 51°33.567 2°55.099 2.4 237 13.1 100990 42
2010-04-29 12:27 51°33.612 2°55.104 2.8 230 13.1 100990 41
2010-04-29 12:28 51°33.656 2°55.089 3.7 324 13.1 100980 41
2010-04-29 12:29 51°33.65 2°54.949 7.3 338 13 100980 41
2010-04-29 12:30 51°33.553 2°54.724 8.4 340 12.9 100970 42
2010-04-29 12:31 51°33.414 2°54.49 8.4 340 12.9 100970 40
2010-04-29 12:32 51°33.271 2°54.247 8.2 339 12.9 100970 41
2010-04-29 12:33 51°33.135 2°54.01 7.3 339 12.9 100970 41
2010-04-29 12:34 51°32.983 2°53.792 7.4 341 13.1 100970 41
2010-04-29 12:35 51°32.811 2°53.605 7.2 340 13.1 100970 40
2010-04-29 12:36 51°32.63 2°53.464 7.2 340 13 100970 42
2010-04-29 12:37 51°32.435 2°53.355 7.5 341 12.8 100970 41
2010-04-29 12:38 51°32.242 2°53.242 7.2 341 12.7 100970 43
2010-04-29 12:39 51°32.046 2°53.128 7.4 341 12.6 100970 41
2010-04-29 12:40 51°31.855 2°53.019 7.3 341 12.5 100970 43
2010-04-29 12:41 51°31.663 2°52.908 7.1 341 12.5 100960 43
2010-04-29 12:42 51°31.471 2°52.794 7.3 340 12.5 100960 43
2010-04-29 12:43 51°31.307 2°52.705 5.2 345 12.5 100970 41
2010-04-29 12:44 51°31.212 2°52.659 3.8 349 12.5 100970 42
2010-04-29 12:45 51°31.177 2°52.636 3 349 12.5 100970 40
2010-04-29 12:46 51°31.166 2°52.625 2.7 346 12.5 100970 40
2010-04-29 12:47 51°31.167 2°52.622 2.5 343 12.6 100970 39
2010-04-29 12:48 51°31.173 2°52.627 2.3 343 12.6 100980 40
2010-04-29 12:49 51°31.179 2°52.629 2.5 340 12.7 100970 42
2010-04-29 12:50 51°31.182 2°52.607 3 340 12.8 100970 42
2010-04-29 12:51 51°31.185 2°52.568 2.9 337 12.9 100970 42
2010-04-29 12:52 51°31.188 2°52.525 2.9 339 13 100970 42
2010-04-29 12:53 51°31.178 2°52.487 3.1 348 13.1 100970 42
2010-04-29 12:54 51°31.157 2°52.467 2.4 352 13 100970 42
2010-04-29 12:55 51°31.115 2°52.501 1.3 7 12.8 100970 39
2010-04-29 12:56 51°31.139 2°52.699 2.4 39 12.7 100970 41
2010-04-29 12:57 51°31.329 2°52.804 6.9 322 12.8 100960 42
2010-04-29 12:58 51°31.566 2°52.743 7.3 323 12.9 100960 41
2010-04-29 12:59 51°31.813 2°52.714 6.9 323 13 100960 41
2010-04-29 13:00 51°32.059 2°52.674 6.9 321 13 100960 42
2010-04-29 13:01 51°32.233 2°52.686 2.3 235 13 100970 40
2010-04-29 13:02 51°32.311 2°52.769 0.6 36 13 100970 41
2010-04-29 13:03 51°32.338 2°52.817 0.3 35 13.1 100970 41
2010-04-29 13:04 51°32.355 2°52.878 0.9 27 13.2 100970 41
2010-04-29 13:05 51°32.346 2°52.947 1.7 7 13.2 100970 42
2010-04-29 13:06 51°32.338 2°52.988 1.8 2 13.1 100970 40
2010-04-29 13:07 51°32.332 2°53.021 1.6 3 12.9 100960 40
2010-04-29 13:08 51°32.328 2°53.053 1.7 4 12.8 100960 42
2010-04-29 13:09 51°32.328 2°53.087 1.6 7 12.7 100960 43
2010-04-29 13:10 51°32.331 2°53.121 1.8 7 12.7 100960 41
2010-04-29 13:11 51°32.335 2°53.155 2 8 12.6 100960 40
2010-04-29 13:12 51°32.297 2°53.215 2.9 357 12.6 100960 40
2010-04-29 13:13 51°32.179 2°53.315 4.8 351 12.5 100960 41
2010-04-29 13:14 51°32.026 2°53.4 5.4 354 12.5 100960 41
2010-04-29 13:15 51°31.885 2°53.483 4.3 360 12.4 100950 43
2010-04-29 13:16 51°31.775 2°53.563 3.6 6 12.4 100950 41
2010-04-29 13:17 51°31.712 2°53.602 3.4 7 12.3 100950 40
2010-04-29 13:18 51°31.685 2°53.618 3.7 2 12.3 100950 41
2010-04-29 13:19 51°31.674 2°53.634 3.5 5 12.3 100950 39
2010-04-29 13:20 51°31.668 2°53.657 4 13 12.3 100950 41
2010-04-29 13:21 51°31.661 2°53.696 3.5 23 12.3 100960 40
2010-04-29 13:22 51°31.65 2°53.752 3 33 12.4 100950 41
2010-04-29 13:23 51°31.644 2°53.819 3.3 36 12.5 100960 40
2010-04-29 13:24 51°31.645 2°53.886 3.2 44 12.5 100950 40
2010-04-29 13:25 51°31.651 2°53.953 3.6 39 12.5 100950 42
2010-04-29 13:26 51°31.658 2°54.01 3.9 38 12.5 100950 42
2010-04-29 13:27 51°31.668 2°54.064 3.5 36 12.5 100950 41
2010-04-29 13:28 51°31.677 2°54.112 3.9 38 12.4 100950 42
2010-04-29 13:29 51°31.688 2°54.16 3.6 37 12.4 100940 42
2010-04-29 13:30 51°31.701 2°54.205 3.7 39 12.4 100940 40
2010-04-29 13:31 51°31.716 2°54.25 3.8 38 12.3 100940 40
2010-04-29 13:32 51°31.671 2°54.285 6.3 358 12.3 100940 40
2010-04-29 13:33 51°31.524 2°54.319 5.5 358 12.1 100930 43
2010-04-29 13:34 51°31.351 2°54.427 5.8 352 12 100930 40
2010-04-29 13:35 51°31.167 2°54.543 4.9 346 11.9 100940 42
2010-04-29 13:36 51°31.052 2°54.614 3.1 350 11.9 100940 41
2010-04-29 13:37 51°31.034 2°54.614 2.6 350 11.9 100950 41
2010-04-29 13:38 51°31.037 2°54.629 2.3 6 11.9 100950 44
2010-04-29 13:39 51°31.038 2°54.671 1.8 25 11.9 100950 42
2010-04-29 13:40 51°31.041 2°54.735 1.5 37 12 100950 44
2010-04-29 13:41 51°31.05 2°54.802 0.3 40 12 100940 42
2010-04-29 13:42 51°31.065 2°54.867 2.1 36 12.1 100940 41
2010-04-29 13:43 51°31.082 2°54.928 2.6 37 12.1 100950 40
2010-04-29 13:44 51°31.101 2°54.984 2.3 38 12.1 100940 41
2010-04-29 13:45 51°31.12 2°55.041 2 36 12.1 100940 41
2010-04-29 13:46 51°31.13 2°55.105 1.9 28 12.1 100940 42
2010-04-29 13:47 51°31.115 2°55.184 2 22 12.2 100940 44
2010-04-29 13:48 51°31.088 2°55.26 2.1 14 12.2 100930 41
2010-04-29 13:49 51°31.058 2°55.326 2.1 12 12.2 100930 41
2010-04-29 13:50 51°31.029 2°55.381 1.9 2 12.2 100930 41
2010-04-29 13:51 51°31.015 2°55.392 3.1 353 12.1 100930 43
2010-04-29 13:52 51°31.004 2°55.388 3.1 356 12.1 100930 41
2010-04-29 13:53 51°30.988 2°55.389 3.3 360 12 100920 42
2010-04-29 13:54 51°30.969 2°55.391 3.4 2 12 100920 42
2010-04-29 13:55 51°30.947 2°55.395 2.9 17 11.9 100920 42
2010-04-29 13:56 51°30.913 2°55.461 2.9 9 11.9 100920 43
2010-04-29 13:57 51°30.797 2°55.554 4.8 353 11.9 100920 44
2010-04-29 13:58 51°30.623 2°55.565 6.7 349 11.9 100900 45
2010-04-29 13:59 51°30.421 2°55.548 6.9 349 12 100900 43
2010-04-29 14:00 51°30.218 2°55.527 6.9 348 12 100900 43
2010-04-29 14:01 51°30.02 2°55.471 7.3 346 12 100900 41
2010-04-29 14:02 51°29.823 2°55.415 7.2 347 12 100900 42
2010-04-29 14:03 51°29.627 2°55.357 7.2 349 12 100890 44
2010-04-29 14:04 51°29.428 2°55.3 6.6 347 11.9 100900 44
2010-04-29 14:05 51°29.236 2°55.244 6.6 346 12 100900 42
2010-04-29 14:06 51°29.04 2°55.185 6.8 346 11.9 100890 41
2010-04-29 14:07 51°28.843 2°55.125 6.5 344 12 100890 42
2010-04-29 14:08 51°28.645 2°55.066 6.5 346 12 100880 41
2010-04-29 14:09 51°28.446 2°55.01 6.4 346 12.1 100880 41
2010-04-29 14:10 51°28.248 2°54.956 6.4 345 12.1 100880 42
2010-04-29 14:11 51°28.047 2°54.903 5.6 343 12.1 100880 41
2010-04-29 14:12 51°27.848 2°54.849 6 334 12.2 100880 44
2010-04-29 14:13 51°27.65 2°54.8 6.6 328 12.3 100880 41
2010-04-29 14:14 51°27.452 2°54.753 6.3 325 12.4 100880 43
2010-04-29 14:15 51°27.259 2°54.705 5.7 332 12.5 100880 40
2010-04-29 14:16 51°27.059 2°54.656 5.5 333 12.5 100870 44
2010-04-29 14:17 51°26.862 2°54.607 4.9 339 12.5 100880 41
2010-04-29 14:18 51°26.666 2°54.561 5.3 341 12.5 100870 41
2010-04-29 14:19 51°26.467 2°54.512 5.1 342 12.5 100860 43
2010-04-29 14:20 51°26.266 2°54.458 5.6 343 12.6 100860 43
2010-04-29 14:21 51°26.063 2°54.4 5.3 341 12.6 100860 41
2010-04-29 14:22 51°25.858 2°54.337 5.9 345 12.6 100860 40
2010-04-29 14:23 51°25.652 2°54.268 6.5 344 12.6 100860 41
2010-04-29 14:24 51°25.445 2°54.198 5.6 344 12.6 100850 42
2010-04-29 14:25 51°25.238 2°54.126 6.5 346 12.6 100850 41
2010-04-29 14:26 51°25.029 2°54.055 6.5 345 12.6 100840 39
2010-04-29 14:27 51°24.823 2°53.987 6.1 344 12.6 100850 41
2010-04-29 14:28 51°24.618 2°53.921 7.3 348 12.6 100850 40
2010-04-29 14:29 51°24.418 2°53.858 6.1 347 12.8 100850 39
2010-04-29 14:30 51°24.211 2°53.86 4.1 338 12.9 100850 40
2010-04-29 14:31 51°24.015 2°54.018 5.2 328 13 100860 41
2010-04-29 14:32 51°23.82 2°54.186 6.3 325 13 100850 39
2010-04-29 14:33 51°23.624 2°54.349 4.8 331 13.1 100850 40
2010-04-29 14:34 51°23.425 2°54.504 3.6 339 13 100860 39
2010-04-29 14:35 51°23.221 2°54.618 4.1 337 13 100850 39
2010-04-29 14:36 51°23.013 2°54.629 4.5 336 13.1 100860 42
2010-04-29 14:37 51°22.813 2°54.569 4.7 343 13.1 100850 42
2010-04-29 14:38 51°22.613 2°54.502 5.6 346 13.1 100840 41
2010-04-29 14:39 51°22.409 2°54.442 5.9 344 13.2 100840 37
2010-04-29 14:40 51°22.204 2°54.377 5.8 344 13.3 100850 40
2010-04-29 14:41 51°21.996 2°54.312 6.5 348 13.3 100840 39
2010-04-29 14:42 51°21.788 2°54.24 5.5 343 13.1 100840 40
2010-04-29 14:43 51°21.578 2°54.162 6.2 344 13 100850 40
2010-04-29 14:44 51°21.37 2°54.073 6 346 13 100840 39
2010-04-29 14:45 51°21.163 2°53.986 6.4 347 12.9 100840 42
2010-04-29 14:46 51°20.957 2°53.897 6.2 347 12.8 100840 42
2010-04-29 14:47 51°20.747 2°53.807 6.5 346 12.7 100840 41
2010-04-29 14:48 51°20.541 2°53.714 6.4 348 12.7 100840 42
2010-04-29 14:49 51°20.337 2°53.618 6.5 350 12.6 100840 40
2010-04-29 14:50 51°20.133 2°53.522 6 348 12.5 100840 42
2010-04-29 14:51 51°19.928 2°53.424 6.2 346 12.5 100840 40
2010-04-29 14:52 51°19.726 2°53.328 5.7 345 12.5 100840 40
2010-04-29 14:53 51°19.518 2°53.224 5.4 341 12.5 100840 40
2010-04-29 14:54 51°19.311 2°53.123 5.4 339 12.5 100840 43
2010-04-29 14:55 51°19.103 2°53.023 5.2 339 12.5 100840 39
2010-04-29 14:56 51°18.897 2°52.922 5.5 337 12.5 100840 41
2010-04-29 14:57 51°18.693 2°52.818 5.3 339 12.5 100840 41
2010-04-29 14:58 51°18.487 2°52.715 5.7 339 12.5 100840 42
2010-04-29 14:59 51°18.279 2°52.641 5 340 12.5 100830 40
2010-04-29 15:00 51°18.064 2°52.625 4.8 339 12.5 100830 43
2010-04-29 15:01 51°17.851 2°52.61 4.9 338 12.5 100840 41
2010-04-29 15:02 51°17.634 2°52.626 4.7 334 12.5 100840 40
2010-04-29 15:03 51°17.416 2°52.659 5.2 331 12.5 100830 42
2010-04-29 15:04 51°17.199 2°52.705 6.1 328 12.5 100830 42
2010-04-29 15:05 51°16.981 2°52.789 5 328 12.4 100820 42
2010-04-29 15:06 51°16.776 2°52.893 5.1 331 12.5 100820 41
2010-04-29 15:07 51°16.568 2°53.009 4.4 333 12.5 100830 43
2010-04-29 15:08 51°16.36 2°53.155 4.4 333 12.5 100820 42
2010-04-29 15:09 51°16.16 2°53.314 5.5 329 12.6 100820 41
2010-04-29 15:10 51°15.965 2°53.479 6.2 326 12.8 100820 41
2010-04-29 15:11 51°15.767 2°53.648 5.3 326 12.9 100820 41
2010-04-29 15:12 51°15.576 2°53.86 5.1 328 12.9 100820 40
2010-04-29 15:13 51°15.388 2°54.07 4.9 327 13 100820 40
2010-04-29 15:14 51°15.199 2°54.273 5.6 326 13 100820 42
2010-04-29 15:15 51°15.02 2°54.491 6.4 325 13.1 100820 42
2010-04-29 15:16 51°14.842 2°54.698 5.6 325 13.2 100810 40
2010-04-29 15:17 51°14.656 2°54.916 5.8 324 13.3 100810 42
2010-04-29 15:18 51°14.465 2°55.096 6.3 325 13.3 100810 42
2010-04-29 15:19 51°14.272 2°55.279 5.3 325 13.4 100810 39
2010-04-29 15:20 51°14.119 2°55.424 2.7 326 13.4 100820 43
2010-04-29 15:21 51°13.995 2°55.515 1.8 328 13.5 100820 40
2010-04-29 15:22 51°13.883 2°55.589 0.9 327 13.6 100810 42
2010-04-29 15:23 51°13.786 2°55.665 -999 319 13.7 100810 40
2010-04-29 15:24 51°13.718 2°55.781 -999 316 13.8 100810 41
2010-04-29 15:25 51°13.68 2°55.883 -999 36 14 100810 39
2010-04-29 15:26 51°13.665 2°55.95 1.2 270 14.1 100810 38